Home   Weather   Chennai   Past weeks

Flag for India Past Weather in Chennai, Tamil Nadu, India — Yesterday and Last 2 Weeks

Now
88 °F

Passing clouds.


Feels Like: 96 °F
Forecast: 78 / 88 °F
Wind: 9 mph from Northeast

Location: Madras / Minambakkam

Current Time: Nov 22, 2017 at 4:18:04 pm

Latest Report: Nov 22, 2017 at 3:30 pm


Visibility: 5 mi

Pressure: 29.77 "Hg

Humidity: 62%

Dew Point: 73 °F

Location of ChennaiLocation

Past Weather in Chennai — Graph

°F

Chennai Temperature Yesterday

Maximum temperature yesterday: 91 °F (at 2:00 pm)
Minimum temperature yesterday: 79 °F (at 5:30 am)
Average temperature yesterday: 84 °F

High & Low Weather Summary for the Past Weeks

 TemperatureHumidityPressure
High93 °F (Nov 15, 1:30 pm)100% (Nov 7, 6:00 pm)29.95 "Hg (Nov 7, 6:00 pm)
Low73 °F (Nov 13, 5:30 am)56% (Nov 15, 1:30 pm)29.65 "Hg (Nov 14, 3:00 pm)
Average82 °F84%29.81 "Hg
* Reported Nov 7 2:30 pm — Nov 22 3:00 pm, Chennai. Weather by CustomWeather, © 2017

Note: Actual official high and low records may vary slightly from our data, if they occured in-between our weather recording intervals... More about our weather records

Advertising

Chennai Weather History for the Previous 24 Hours

Scroll right to see more
 ConditionsComfort  
Time TempWeatherWind HumidityBarometerVisibility
3:00 pm
Wed, Nov 22
90 °FPassing clouds.9 mph59%29.80 "Hg5 mi
2:30 pm90 °FPassing clouds.9 mph59%29.80 "Hg5 mi
2:00 pm90 °FPassing clouds.8 mph63%29.80 "Hg5 mi
1:30 pm91 °FPassing clouds.9 mph59%29.80 "Hg5 mi
1:00 pm91 °FPassing clouds.9 mph56%29.83 "Hg4 mi
12:30 pm91 °FPassing clouds.9 mph59%29.83 "Hg4 mi
12:00 pm91 °FPassing clouds.12 mph59%29.86 "Hg4 mi
11:30 am90 °FPassing clouds.9 mph63%29.89 "Hg4 mi
11:00 am88 °FPassing clouds.9 mph66%29.89 "Hg4 mi
10:30 am88 °FHaze.9 mph66%29.89 "Hg3 mi
10:00 am88 °FHaze.9 mph66%29.89 "Hg3 mi
9:30 am88 °FHaze.7 mph66%29.89 "Hg3 mi
9:00 am86 °FScattered clouds.8 mph75%29.89 "Hg2 mi
8:30 am82 °FFog.7 mph84%29.89 "Hg2 mi
8:00 am82 °FFog.5 mph84%29.89 "Hg1 mi
7:30 am81 °FFog.No wind94%29.86 "Hg1 mi
7:00 am81 °FFog.No wind89%29.86 "Hg2 mi
6:30 am79 °FFog.No wind94%29.83 "Hg2 mi
6:00 am79 °FFog.No wind94%29.83 "Hg2 mi
5:30 am79 °FDrizzle. Mostly cloudy.No wind94%29.83 "Hg2 mi
5:00 am79 °FFog.No wind94%29.80 "Hg2 mi
4:30 am79 °FFog.No wind94%29.80 "Hg2 mi
4:00 am79 °FFog.No wind94%29.80 "Hg3 mi
3:30 am81 °FFog.No wind89%29.80 "Hg3 mi
3:00 am81 °FFog.No wind89%29.80 "Hg3 mi
2:30 am81 °FFog.3 mph89%29.80 "Hg3 mi
2:00 am81 °FFog.3 mph89%29.83 "Hg3 mi
1:30 am81 °FFog.3 mph89%29.83 "Hg3 mi
12:30 am81 °FFog.5 mph89%29.86 "Hg3 mi
12:00 am81 °FFog.6 mph89%29.86 "Hg3 mi
11:30 pm
Tue, Nov 21
82 °FFog.6 mph84%29.86 "Hg3 mi
11:00 pm82 °FFog.6 mph84%29.89 "Hg3 mi
10:30 pm82 °FPassing clouds.6 mph84%29.89 "Hg4 mi
10:00 pm82 °FPassing clouds.6 mph84%29.89 "Hg4 mi
9:30 pm82 °FPassing clouds.5 mph84%29.89 "Hg4 mi
9:00 pm82 °FPassing clouds.5 mph84%29.89 "Hg4 mi
8:30 pm82 °FPassing clouds.5 mph84%29.89 "Hg4 mi
8:00 pm82 °FPassing clouds.3 mph84%29.86 "Hg4 mi
7:30 pm82 °FPassing clouds.5 mph79%29.86 "Hg4 mi
7:00 pm82 °FPassing clouds.5 mph79%29.86 "Hg4 mi
6:30 pm84 °FPassing clouds.7 mph74%29.83 "Hg4 mi
5:30 pm84 °FPassing clouds.9 mph74%29.83 "Hg4 mi
5:00 pm86 °FPassing clouds.9 mph70%29.80 "Hg4 mi
4:30 pm88 °FPassing clouds.8 mph66%29.80 "Hg4 mi
4:00 pm90 °FPassing clouds.12 mph63%29.80 "Hg4 mi
Weather by CustomWeather, © 2017

See weather overview